Sign-in with your pilot id or email, or register

ICAO: GMMN Name / Country: Aéroport de Casablanca - Mohamed V / Morocco
Latitude: 33.3675 Longitude: -7.58997
Total Arrivals:
Strict Standards: Non-static method AirportData::getarrflights() should not be called statically, assuming $this from incompatible context in /var/www/customers/vh-7192/web/home/phpvms/core/templates/airport_info.tpl on line 18
1
Total Departures:
Strict Standards: Non-static method AirportData::getdeptflights() should not be called statically, assuming $this from incompatible context in /var/www/customers/vh-7192/web/home/phpvms/core/templates/airport_info.tpl on line 21
1
Latest Arrival: MTA5PM (GOOY-GMMN) Tibor Berces Latest Departure: MTA5PM (GMMN-DAAG) Tibor Berces
Metar: GMMN 172330Z 19002KT 0250 R35R/0250N FG OVC001 04/04 Q1027 NOSIG
More info

Charts for GMMN


NOTAM


Warning: file_get_contents(http://api.vateud.net/notams/GMMN.json): failed to open stream: HTTP request failed! HTTP/1.1 404 Not Found in /var/www/customers/vh-7192/web/home/phpvms/core/common/NOTAMSData.class.php on line 18

Warning: Invalid argument supplied for foreach() in /var/www/customers/vh-7192/web/home/phpvms/core/common/NOTAMSData.class.php on line 22

Aéroport de Casablanca - Mohamed V